Location: Ajisawe
(8.4333°N, 4.3833°E)
Time: 23:28:39
(UTC+00:00)

S-56A Canister/Altair - Pass Details

Date: 24 April 2021
Orbit: 631 x 2501 km, 38.9° (Epoch: 15 May)

Event Time Altitude Azimuth Distance (km) Brightness Sun altitude
Rises 21:07:30 0° 269° (W) 5,739 12.6 -46.3°
Reaches altitude 10° 21:13:16 10° 285° (WNW) 4,401 11.9 -47.5°
Maximum altitude 21:20:28 18° 324° (NW) 3,254 11.0 -49.1°
Enters shadow 21:26:10 10° 5° (N) 3,391 11.0 -50.3°
